BEIDOU-2 IGSO-1 (C06) 1 36828U 10036A 26062.70852657 -.00000147 00000+0 00000+0 0 9994 2 36828 54.2923 163.9165 0054007 218.9612 138.7891 1.00252560 57033 BEIDOU-2 G4 (C04) 1 37210U 10057A 26062.90347635 -.00000124 00000+0 00000+0 0 9995 2 37210 3.3855 69.5514 0009097 210.5609 6.8026 1.00272039 56239 BEIDOU-2 IGSO-2 (C07) 1 37256U 10068A 26062.54925478 -.00000175 00000+0 00000+0 0 9990 2 37256 47.7339 273.1369 0047361 212.9625 340.0691 1.00258892 55735 BEIDOU-2 IGSO-3 (C08) 1 37384U 11013A 26058.90884667 -.00000154 00000+0 00000+0 0 9999 2 37384 62.2642 41.1818 0035029 190.8154 358.7681 1.00294022 54567 BEIDOU-2 IGSO-4 (C09) 1 37763U 11038A 26062.71737726 -.00000114 00000+0 00000+0 0 9990 2 37763 54.5893 166.6259 0154374 230.9657 116.5987 1.00265642 53587 BEIDOU-2 IGSO-5 (C10) 1 37948U 11073A 26062.55653834 -.00000150 00000+0 00000+0 0 9993 2 37948 47.8694 272.8493 0108574 221.0989 322.8910 1.00272725 52077 BEIDOU-2 G5 (C05) 1 38091U 12008A 26063.10233397 .00000045 00000+0 00000+0 0 9994 2 38091 3.3118 70.3139 0014094 250.3269 296.8388 1.00276264 51319 BEIDOU-2 M3 (C11) 1 38250U 12018A 26062.40807551 -.00000060 00000+0 00000+0 0 9991 2 38250 55.8472 308.4420 0021171 279.5872 80.2341 1.86229789 93972 BEIDOU-2 M4 (C12) 1 38251U 12018B 26062.87717712 -.00000061 00000+0 00000+0 0 9993 2 38251 55.7474 307.6486 0012645 286.4281 73.4931 1.86229513 93989 BEIDOU-2 M6 (C14) 1 38775U 12050B 26063.12433566 -.00000023 00000+0 00000+0 0 9999 2 38775 56.4527 66.3667 0013948 341.7559 18.2197 1.86230925 91356 BEIDOU-2 G6 (C02) 1 38953U 12059A 26063.10227411 -.00000185 00000+0 00000+0 0 9993 2 38953 4.1554 74.6500 0010672 304.2337 263.7683 1.00269514 48857 BEIDOU-3S IGSO-1S (C31) 1 40549U 15019A 26062.60351340 -.00000161 00000+0 00000+0 0 9993 2 40549 49.3919 296.7335 0035838 190.4162 347.9683 1.00273864 40010 BEIDOU-3S M2S (C58) 1 40748U 15037A 26062.54429301 -.00000057 00000+0 00000+0 0 9994 2 40748 54.9636 305.6850 0008875 278.3355 81.6239 1.86231824 72155 BEIDOU-3S M1S (C57) 1 40749U 15037B 26061.69084880 -.00000053 00000+0 00000+0 0 9995 2 40749 54.9610 305.7025 0004647 29.9008 330.1863 1.86253746 72142 BEIDOU-2 IGSO-6 (C13) 1 41434U 16021A 26062.89079911 -.00000149 00000+0 00000+0 0 9999 2 41434 60.0859 39.0829 0059818 233.4373 305.5340 1.00278539 36423 BEIDOU-2 G7 (C03) 1 41586U 16037A 26062.97961392 -.00000365 00000+0 00000+0 0 9996 2 41586 1.4606 68.1972 0007538 341.8268 214.8775 1.00267566 5834 BEIDOU-3 M1 (C19) 1 43001U 17069A 26062.35283419 -.00000016 00000+0 00000+0 0 9998 2 43001 56.6002 66.5689 0012408 309.5374 50.3827 1.86230953 56637 BEIDOU-3 M2 (C20) 1 43002U 17069B 26062.82828378 -.00000020 00000+0 00000+0 0 9995 2 43002 56.5992 66.5893 0009693 329.0320 30.9383 1.86230528 56631 BEIDOU-3 M7 (C27) 1 43107U 18003A 26062.03335740 -.00000057 00000+0 00000+0 0 9999 2 43107 54.4221 306.0180 0004645 71.0073 289.1026 1.86232234 55379 BEIDOU-3 M8 (C28) 1 43108U 18003B 26061.44195370 -.00000053 00000+0 00000+0 0 9993 2 43108 54.4152 306.0214 0003138 293.2400 66.7868 1.86230717 55376 BEIDOU-3 M4 (C22) 1 43207U 18018A 26062.42109766 -.00000016 00000+0 00000+0 0 9991 2 43207 56.5592 66.6343 0006867 350.5022 9.5144 1.86230898 54773 BEIDOU-3 M3 (C21) 1 43208U 18018B 26062.48754531 -.00000017 00000+0 00000+0 0 9995 2 43208 56.5588 66.6362 0009891 319.5859 40.3698 1.86231010 54777 BEIDOU-3 M9 (C29) 1 43245U 18029A 26062.16773196 -.00000053 00000+0 00000+0 0 9991 2 43245 54.2892 303.6573 0000915 20.7299 339.3338 1.86228161 53927 BEIDOU-3 M10 (C30) 1 43246U 18029B 26062.10261873 -.00000053 00000+0 00000+0 0 9990 2 43246 54.2869 303.6873 0005105 23.5848 336.4987 1.86228882 53908 BEIDOU-2 IGSO-7 (C16) 1 43539U 18057A 26056.73984515 -.00000161 00000+0 00000+0 0 9993 2 43539 55.1859 164.0342 0099962 236.5988 133.5173 1.00284731 28015 BEIDOU-3 M5 (C23) 1 43581U 18062A 26062.86369148 -.00000012 00000+0 00000+0 0 9991 2 43581 54.0880 185.8842 0002114 310.2542 49.6863 1.86228633 51673 BEIDOU-3 M6 (C24) 1 43582U 18062B 26062.72660318 -.00000014 00000+0 00000+0 0 9992 2 43582 54.0877 185.8781 0006256 44.1915 315.8167 1.86227526 51675 BEIDOU-3 M12 (C26) 1 43602U 18067A 26061.59110086 -.00000026 00000+0 00000+0 0 9999 2 43602 54.1825 184.6546 0008588 39.8197 320.1981 1.86227627 51137 BEIDOU-3 M11 (C25) 1 43603U 18067B 26062.79977380 -.00000013 00000+0 00000+0 0 9997 2 43603 54.1800 184.5775 0004999 34.5832 325.4101 1.86227031 51180 BEIDOU-3 M13 (C32) 1 43622U 18072A 26061.14480929 -.00000007 00000+0 00000+0 0 9993 2 43622 56.5306 66.1905 0008885 307.5967 52.3573 1.86230769 50661 BEIDOU-3 M14 (C33) 1 43623U 18072B 26061.01026698 -.00000006 00000+0 00000+0 0 9998 2 43623 56.5324 66.1890 0006344 328.5825 31.4150 1.86230813 50657 BEIDOU-3 M16 (C35) 1 43647U 18078A 26061.16715456 -.00000048 00000+0 00000+0 0 9999 2 43647 54.1863 303.7392 0008434 30.8134 329.2965 1.86232266 50162 BEIDOU-3 M15 (C34) 1 43648U 18078B 26062.37035185 -.00000055 00000+0 00000+0 0 9996 2 43648 54.1808 303.6975 0005342 38.8897 321.2084 1.86232017 50200 BEIDOU-3 G1 (C59) 1 43683U 18085A 26063.20893297 -.00000290 00000+0 00000+0 0 9993 2 43683 2.8102 100.3911 0001342 24.9069 251.9134 1.00268563 27009 BEIDOU-3 M17 (C36) 1 43706U 18093A 26061.46828306 -.00000026 00000+0 00000+0 0 9990 2 43706 54.1714 185.9163 0006994 297.4131 70.7484 1.86228347 49556 BEIDOU-3 M18 (C37) 1 43707U 18093B 26061.31825568 -.00000028 00000+0 00000+0 0 9994 2 43707 54.1724 185.9133 0006020 341.6195 18.3110 1.86226384 49549 BEIDOU-3 IGSO-1 (C38) 1 44204U 19023A 26062.82416976 -.00000206 00000+0 00000+0 0 9995 2 44204 58.5529 38.7313 0026007 236.5299 302.2114 1.00271041 6157 BEIDOU-2 G8 (C01) 1 44231U 19027A 26062.40122155 -.00000262 00000+0 00000+0 0 9998 2 44231 1.8655 74.7300 0009271 269.3734 105.9868 1.00268063 25027 BEIDOU-3 IGSO-2 (C39) 1 44337U 19035A 26057.68879618 -.00000176 00000+0 00000+0 0 9995 2 44337 55.2338 159.8353 0038734 206.4752 153.7223 1.00247364 24561 BEIDOU-3 M24 (C46) 1 44542U 19061A 26062.46218233 -.00000017 00000+0 00000+0 0 9998 2 44542 54.3994 186.2929 0008607 21.3432 338.6489 1.86228787 43825 BEIDOU-3 M23 (C45) 1 44543U 19061B 26062.31966779 -.00000018 00000+0 00000+0 0 9999 2 44543 54.3976 186.2660 0005077 14.2210 162.4807 1.86227170 43823 BEIDOU-3 IGSO-3 (C40) 1 44709U 19073A 26062.00508347 -.00000154 00000+0 00000+0 0 9996 2 44709 54.9806 282.0451 0040489 189.0046 170.9845 1.00269768 23393 BEIDOU-3 M22 (C44) 1 44793U 19078A 26059.07985671 -.00000039 00000+0 00000+0 0 9998 2 44793 54.0347 303.6688 0007221 34.9561 325.1493 1.86231871 42613 BEIDOU-3 M21 (C43) 1 44794U 19078B 26062.44110506 -.00000055 00000+0 00000+0 0 9999 2 44794 54.0047 303.5128 0005885 39.3589 320.7432 1.86227535 42685 BEIDOU-3 M19 (C41) 1 44864U 19090A 26061.26275238 -.00000008 00000+0 00000+0 0 9992 2 44864 56.4657 66.3234 0020408 291.3317 195.2232 1.86231220 42246 BEIDOU-3 M20 (C42) 1 44865U 19090B 26062.82614198 -.00000021 00000+0 00000+0 0 9993 2 44865 56.4687 66.3059 0017813 302.9430 241.3938 1.86231297 42257 BEIDOU-3 G2 (C60) 1 45344U 20017A 26063.10149411 -.00000151 00000+0 00000+0 0 9994 2 45344 2.6538 45.6555 0002769 309.2893 283.4763 1.00271474 22209 BEIDOU-3 G3 (C61) 1 45807U 20040A 26063.03623380 -.00000365 00000+0 00000+0 0 9995 2 45807 2.1891 67.1211 0004301 315.9746 262.2089 1.00275572 21010 BEIDOU-3 G4 (C62) 1 56564U 23066A 26063.19072549 -.00000124 00000+0 00000+0 0 9993 2 56564 0.6489 310.8945 0002044 159.5809 280.1635 1.00272234 10346 BEIDOU-3 M28 (C50) 1 58654U 23207A 26061.98162292 -.00000017 00000+0 00000+0 0 9993 2 58654 55.6589 65.8845 0004896 302.3246 57.6586 1.86229755 14862 BEIDOU-3 M26 (C48) 1 58655U 23207B 26062.31605649 -.00000020 00000+0 00000+0 0 9994 2 58655 55.6613 65.8595 0005721 288.0153 71.9513 1.86229607 14852 BEIDOU-3 M25 (C47) 1 61186U 24168B 26062.40841492 -.00000058 00000+0 00000+0 0 9993 2 61186 54.5666 305.9191 0004276 318.3720 220.5115 1.86230084 9813 BEIDOU-3 M27 (C49) 1 61187U 24168C 26063.08358616 -.00000062 00000+0 00000+0 0 9995 2 61187 54.5615 305.8790 0002971 19.9023 26.6369 1.86230271 7308